Weather History for KMKJ - December, 2012

Change the Weather History Date:

Sunday, December 9, 2012

  Actual Average (KBLF) Record (KBLF)
Temperature  
Mean Temperature 56 °F 39 °F  
Max Temperature 70 °F 46 °F 69 °F (2007)
Min Temperature 41 °F 31 °F 9 °F (1962)
Degree Days  
Heating Degree Days 10 26  
Month to date heating degree days 225  
Since 1 July heating degree days 1128  
Cooling Degree Days 0 0  
Month to date cooling degree days 0  
Year to date cooling degree days 853  
Growing Degree Days 6 (Base 50)    
Moisture  
Dew Point 49 °F    
Average Humidity 81    
Maximum Humidity 99    
Minimum Humidity 49    
Precipitation  
Precipitation 0.02 in 0.10 in 1.02 in (1978)
Month to date precipitation 0.88  
Year to date precipitation 37.60  
Snow  
Snow 0.00 in - - ()
Month to date snowfall  
Since 1 July snowfall  
Snow Depth -    
Sea Level Pressure  
Sea Level Pressure 30.06 in    
Wind  
Wind Speed 2 mph (SE)    
Max Wind Speed 10 mph    
Max Gust Speed 17 mph    
Visibility 7 miles    
Events Fog , Rain    
T = Trace of Precipitation, MM = Missing Value Source: NWS Daily Summary

Daily Weather History Graph

Daily Weather History Graph

Search for Another Location

Airport or City:

Trip Planner

Search our weather history database for the weather conditions in past years. The results will help you decide how hot, cold, wet, or windy it might be!

Date:

Astronomy

Dec. 09, 2012 Rise Set
Actual Time 7:27 AM EST 5:08 PM EST
Civil Twilight 6:58 AM EST 5:37 PM EST
Nautical Twilight 6:25 AM EST 6:10 PM EST
Astronomical Twilight 5:54 AM EST 6:41 PM EST
Moon 3:02 AM EST (12/9) 2:10 PM EST (12/9)
Length of Visible Light 10h 39m
Length of Day
9h 41m
Waning Crescent, 19% of the Moon is Illuminated
Dec 9
Waning Crescent
Dec 13
New
Dec 20
First Quarter
Dec 28
Full
Jan 4
Last Quarter

Hourly Weather History & Observations

Time (EST) Temp. Dew Point Humidity Pressure Visibility Wind Dir Wind Speed Gust Speed Precip Events Conditions
12:15 AM 45.3 °F 45.1 °F 99% 30.06 in 2.5 mi Calm Calm - N/A   Scattered Clouds
12:35 AM 44.1 °F 43.9 °F 99% 30.07 in 0.8 mi Calm Calm - N/A   Mostly Cloudy
12:55 AM 43.0 °F 42.6 °F 99% 30.08 in 0.2 mi Calm Calm - N/A Fog Fog
1:15 AM 44.1 °F 43.7 °F 99% 30.08 in 0.8 mi Calm Calm - N/A   Overcast
1:35 AM 42.1 °F 41.9 °F 99% 30.08 in 0.5 mi Calm Calm - N/A Fog Fog
2:15 AM 42.3 °F 41.9 °F 99% 30.09 in 1.8 mi Calm Calm - N/A   Overcast
2:35 AM 41.9 °F 41.5 °F 99% 30.08 in 0.5 mi Calm Calm - N/A Fog Fog
2:55 AM 43.5 °F 43.2 °F 99% 30.08 in 3.0 mi Calm Calm - N/A   Mostly Cloudy
3:15 AM 44.1 °F 43.9 °F 99% 30.08 in 1.2 mi Calm Calm - N/A   Overcast
3:35 AM 42.8 °F 42.6 °F 99% 30.08 in 0.5 mi Calm Calm - N/A Fog Fog
3:55 AM 43.0 °F 42.8 °F 99% 30.08 in 0.2 mi Calm Calm - N/A Fog Fog
4:15 AM 45.3 °F 45.0 °F 99% 30.09 in 0.8 mi Calm Calm - N/A   Overcast
4:35 AM 44.6 °F 44.2 °F 99% 30.09 in 0.8 mi Calm Calm - N/A   Overcast
4:55 AM 44.6 °F 44.1 °F 98% 30.09 in 2.0 mi Calm Calm - 0.02 in Rain Heavy Rain
5:15 AM 44.2 °F 43.9 °F 99% 30.09 in 3.0 mi Calm Calm - N/A   Overcast
5:35 AM 45.5 °F 45.1 °F 99% 30.09 in 4.0 mi Calm Calm - N/A   Overcast
5:55 AM 44.8 °F 44.4 °F 99% 30.09 in 3.0 mi Calm Calm - N/A   Mostly Cloudy
6:15 AM 46.8 °F 46.4 °F 99% 30.11 in 2.0 mi Calm Calm - N/A   Mostly Cloudy
6:35 AM 45.0 °F 44.8 °F 99% 30.11 in 0.8 mi Calm Calm - N/A   Overcast
6:55 AM 44.4 °F 44.2 °F 99% 30.12 in 0.5 mi Calm Calm - N/A Fog Fog
7:15 AM 45.1 °F 44.8 °F 99% 30.13 in 2.0 mi Calm Calm - N/A   Overcast
7:35 AM 44.6 °F 44.4 °F 99% 30.13 in 1.8 mi Calm Calm - N/A   Overcast
7:55 AM 44.8 °F 44.6 °F 99% 30.13 in 1.2 mi Calm Calm - N/A   Mostly Cloudy
8:15 AM 46.4 °F 46.0 °F 99% 30.13 in 2.0 mi Calm Calm - N/A   Overcast
8:35 AM 46.8 °F 46.6 °F 99% 30.14 in 2.0 mi East 3.5 mph - N/A   Overcast
8:55 AM 48.4 °F 48.2 °F 99% 30.14 in 3.0 mi Calm Calm - N/A   Overcast
9:15 AM 50.2 °F 50.0 °F 99% 30.14 in 4.0 mi Calm Calm - N/A   Overcast
9:35 AM 53.2 °F 52.7 °F 98% 30.13 in 5.0 mi Calm Calm - N/A   Overcast
9:55 AM 56.5 °F 55.0 °F 95% 30.13 in 10.0 mi ESE 3.5 mph - N/A   Scattered Clouds
10:35 AM 59.2 °F 53.4 °F 81% 30.13 in 10.0 mi ENE 8.1 mph - N/A   Scattered Clouds
10:55 AM 60.1 °F 53.8 °F 80% 30.12 in 10.0 mi ENE 8.1 mph - N/A   Scattered Clouds
11:15 AM 61.5 °F 53.4 °F 75% 30.11 in 10.0 mi ENE 6.9 mph - N/A   Scattered Clouds
11:35 AM 63.5 °F 54.3 °F 72% 30.09 in 10.0 mi ENE 9.2 mph - N/A   Scattered Clouds
11:55 AM 64.9 °F 53.8 °F 67% 30.09 in 10.0 mi East 8.1 mph - N/A   Clear
12:15 PM 65.1 °F 54.3 °F 68% 30.06 in 10.0 mi NE 9.2 mph - N/A   Clear
12:35 PM 64.8 °F 54.3 °F 69% 30.05 in 10.0 mi NE 6.9 mph - N/A   Scattered Clouds
12:55 PM 67.5 °F 53.6 °F 61% 30.04 in 10.0 mi NE 6.9 mph - N/A   Mostly Cloudy
1:15 PM 67.3 °F 53.8 °F 62% 30.03 in 10.0 mi NNE 5.8 mph - N/A   Overcast
1:35 PM 68.2 °F 53.1 °F 58% 30.02 in 10.0 mi North 5.8 mph - N/A   Mostly Cloudy
1:55 PM 70.7 °F 52.3 °F 52% 30.01 in 10.0 mi SSE 3.5 mph - N/A   Scattered Clouds
2:15 PM 70.7 °F 50.7 °F 49% 30.01 in 10.0 mi South 3.5 mph - N/A   Scattered Clouds
2:35 PM 68.7 °F 51.6 °F 54% 30.01 in 10.0 mi West 6.9 mph - N/A   Overcast
2:55 PM 68.2 °F 50.7 °F 54% 30.01 in 10.0 mi SSE 6.9 mph - N/A   Overcast
3:15 PM 67.6 °F 50.7 °F 55% 30.01 in 10.0 mi South 5.8 mph - N/A   Scattered Clouds
3:35 PM 67.6 °F 50.4 °F 54% 30.01 in 10.0 mi South 8.1 mph - N/A   Scattered Clouds
3:55 PM 67.6 °F 50.2 °F 54% 30.01 in 10.0 mi South 3.5 mph - N/A   Scattered Clouds
4:15 PM 67.1 °F 50.5 °F 55% 30.01 in 10.0 mi South 6.9 mph - N/A   Mostly Cloudy
4:35 PM 66.2 °F 51.1 °F 58% 30.01 in 10.0 mi South 4.6 mph - N/A   Overcast
4:55 PM 64.9 °F 52.0 °F 63% 30.02 in 10.0 mi South 3.5 mph - N/A   Overcast
5:15 PM 64.2 °F 52.0 °F 64% 30.02 in 10.0 mi South 6.9 mph - N/A   Overcast
5:35 PM 63.7 °F 52.2 °F 66% 30.04 in 10.0 mi South 4.6 mph - N/A   Overcast
5:55 PM 62.8 °F 52.7 °F 70% 30.04 in 10.0 mi South 10.4 mph 17.3 mph N/A   Overcast
6:15 PM 62.6 °F 52.7 °F 70% 30.03 in 10.0 mi South 10.4 mph 16.1 mph N/A   Overcast
6:35 PM 62.1 °F 52.3 °F 70% 30.03 in 10.0 mi South 3.5 mph - N/A   Mostly Cloudy
6:55 PM 62.1 °F 52.2 °F 70% 30.03 in 10.0 mi Calm Calm - N/A   Overcast
7:15 PM 62.2 °F 51.8 °F 69% 30.03 in 10.0 mi East 3.5 mph - N/A   Overcast
7:35 PM 61.7 °F 51.8 °F 70% 30.02 in 10.0 mi Calm Calm - N/A   Overcast
7:55 PM 61.9 °F 51.8 °F 69% 30.02 in 10.0 mi SSE 4.6 mph - N/A   Mostly Cloudy
8:15 PM 61.3 °F 51.8 °F 71% 30.02 in 10.0 mi Calm Calm - N/A   Scattered Clouds
8:35 PM 61.3 °F 52.0 °F 71% 30.02 in 10.0 mi Calm Calm - N/A   Clear
8:55 PM 61.0 °F 52.2 °F 73% 30.02 in 10.0 mi Calm Calm - N/A   Clear
9:15 PM 60.3 °F 52.0 °F 74% 30.01 in 10.0 mi Calm Calm - N/A   Clear
9:35 PM 59.5 °F 52.3 °F 77% 30.01 in 10.0 mi SE 3.5 mph - N/A   Clear
9:55 PM 59.4 °F 52.3 °F 78% 30.00 in 10.0 mi Calm Calm - N/A   Clear
10:15 PM 58.3 °F 52.3 °F 81% 30.00 in 10.0 mi SE 3.5 mph - N/A   Clear
10:35 PM 58.3 °F 52.3 °F 81% 29.99 in 10.0 mi Calm Calm - N/A   Clear
10:55 PM 57.6 °F 52.2 °F 82% 29.98 in 10.0 mi Calm Calm - N/A   Clear
11:15 PM 58.5 °F 52.0 °F 79% 29.98 in 10.0 mi Calm Calm - N/A   Clear
11:35 PM 59.0 °F 52.2 °F 78% 29.97 in 10.0 mi Calm Calm - N/A   Clear
11:55 PM 59.0 °F 52.0 °F 78% 29.97 in 10.0 mi Calm Calm - N/A   Clear